Location: Lanoux
(43.1180°N, 1.4255°E)
Time: 15:14:45
(UTC+00:00)

Tiangong - Pass Details

Date: 19 February 2026
Orbit: 382 x 391 km, 41.5° (Epoch: 5 March)

Event Time Altitude Azimuth Distance (km) Brightness Sun altitude
Rises 19:27:11 0° 273° (W) 2,255 3.3 -21.9°
Reaches altitude 10° 19:29:33 10° 257° (WSW) 1,398 1.7 -22.4°
Enters shadow 19:31:44 21° 214° (SW) 917 0.0 -22.8°
